Eastsound, WA

11:06 AM PDT on March 29, 2017 (GMT -0700)
Orcas Island

Weather History for KORS - December, 2012

Change the Weather History Date:

Friday, December 21, 2012

  Actual Average (KFHR) Record (KFHR)
Temperature  
Mean Temperature 40 °F -  
Max Temperature 44 °F 43 °F 55 °F (2005)
Min Temperature 37 °F 34 °F 19 °F (1998)
Degree Days  
Heating Degree Days 24    
Moisture  
Dew Point 34 °F    
Average Humidity 79    
Maximum Humidity 93    
Minimum Humidity 70    
Precipitation  
Precipitation 0.00 in - - ()
Sea Level Pressure  
Sea Level Pressure 29.72 in    
Wind  
Wind Speed 4 mph (East)    
Max Wind Speed 10 mph    
Max Gust Speed 22 mph    
Visibility 10 miles    
Events Rain    
Averages and records for this station are not official NWS values.
T = Trace of Precipitation, MM = Missing Value Source: NWS Daily Summary

Daily Weather History Graph

Daily Weather History Graph

Search for Another Location

Airport or City:

Trip Planner

Search our weather history database for the weather conditions in past years. The results will help you decide how hot, cold, wet, or windy it might be!

Date:

Astronomy

Dec. 21, 2012 Rise Set
Actual Time 8:02 AM PST 4:18 PM PST
Civil Twilight 7:24 AM PST 4:55 PM PST
Nautical Twilight 6:44 AM PST 5:35 PM PST
Astronomical Twilight 6:06 AM PST 6:14 PM PST
Moon 12:26 PM PST (12/21) 1:33 AM PST (12/21)
Length of Visible Light 9h 30m
Length of Day
8h 16m
Waxing Gibbous, 66% of the Moon is Illuminated
Dec 21
Waxing Gibbous
Dec 28
Full
Jan 4
Last Quarter
Jan 11
New
Jan 18
First Quarter

Hourly Weather History & Observations

Time (PST) Temp. Windchill Dew Point Humidity Pressure Visibility Wind Dir Wind Speed Gust Speed Precip Events Conditions
12:15 AM 41.0 °F 37.1 °F 35.6 °F 81% 29.76 in 10.0 mi SSE 5.8 mph - N/A   Clear
12:35 AM 41.0 °F - 33.8 °F 76% 29.77 in 10.0 mi Calm Calm - N/A   Clear
12:55 AM 41.0 °F 39.0 °F 33.8 °F 76% 29.78 in 10.0 mi ESE 3.5 mph - N/A   Clear
1:15 AM 41.0 °F 39.0 °F 32.0 °F 70% 29.78 in 10.0 mi SE 3.5 mph - N/A   Clear
1:35 AM 41.0 °F 35.8 °F 32.0 °F 70% 29.77 in 10.0 mi East 8.1 mph - N/A   Clear
1:55 AM 41.0 °F 37.1 °F 32.0 °F 70% 29.77 in 10.0 mi East 5.8 mph - N/A   Clear
2:15 AM 41.0 °F - 32.0 °F 70% 29.76 in 10.0 mi Calm Calm - N/A   Clear
2:35 AM 41.0 °F - 32.0 °F 70% 29.76 in 10.0 mi Calm Calm - N/A   Clear
2:55 AM 39.2 °F 35.9 °F 35.6 °F 87% 29.76 in 10.0 mi NNE 4.6 mph - N/A   Clear
3:15 AM 39.2 °F - 35.6 °F 87% 29.76 in 10.0 mi Calm Calm - N/A   Clear
3:55 AM 37.4 °F - 35.6 °F 93% 29.75 in 10.0 mi Calm Calm - N/A   Clear
4:15 AM 37.4 °F - 35.6 °F 93% 29.75 in 10.0 mi Calm Calm - N/A   Partly Cloudy
4:35 AM 37.4 °F - 35.6 °F 93% 29.75 in 10.0 mi North - - N/A   Clear
4:55 AM 37.4 °F - 33.8 °F 87% 29.75 in 10.0 mi Calm Calm - N/A   Clear
5:15 AM 37.4 °F - 33.8 °F 87% 29.74 in 10.0 mi Calm Calm - N/A   Clear
5:35 AM 39.2 °F - 33.8 °F 81% 29.72 in 10.0 mi Calm Calm - N/A   Clear
5:55 AM 39.2 °F - 32.0 °F 75% 29.73 in 10.0 mi Calm Calm - N/A   Clear
6:15 AM 37.4 °F - 32.0 °F 81% 29.72 in 10.0 mi Calm Calm - N/A   Clear
6:35 AM 39.2 °F 37.0 °F 32.0 °F 75% 29.71 in 10.0 mi West 3.5 mph - N/A   Clear
6:55 AM 39.2 °F - 32.0 °F 75% 29.71 in 10.0 mi Calm Calm - N/A   Clear
7:15 AM 39.2 °F 35.9 °F 32.0 °F 75% 29.72 in 10.0 mi ENE 4.6 mph - N/A   Clear
7:35 AM 39.2 °F 35.9 °F 32.0 °F 75% 29.72 in 10.0 mi East 4.6 mph - N/A   Clear
7:55 AM 39.2 °F 35.9 °F 32.0 °F 75% 29.72 in 10.0 mi ENE 4.6 mph - N/A   Partly Cloudy
8:15 AM 39.2 °F 37.0 °F 32.0 °F 75% 29.72 in 10.0 mi NE 3.5 mph - N/A   Mostly Cloudy
8:35 AM 39.2 °F 35.0 °F 32.0 °F 75% 29.70 in 10.0 mi NNW 5.8 mph - N/A   Overcast
8:55 AM 39.2 °F - 32.0 °F 75% 29.70 in 10.0 mi Calm Calm - N/A   Overcast
9:15 AM 39.2 °F 37.0 °F 32.0 °F 75% 29.71 in 10.0 mi WSW 3.5 mph - N/A   Overcast
9:35 AM 39.2 °F 37.0 °F 32.0 °F 75% 29.71 in 10.0 mi ENE 3.5 mph - N/A   Scattered Clouds
9:55 AM 39.2 °F 35.0 °F 32.0 °F 75% 29.71 in 9.0 mi ENE 5.8 mph - N/A Rain Light Rain
10:15 AM 39.2 °F 34.2 °F 32.0 °F 75% 29.72 in 9.0 mi ENE 6.9 mph - N/A Rain Light Rain
10:55 AM 39.2 °F 34.2 °F 32.0 °F 75% 29.71 in 10.0 mi East 6.9 mph - N/A   Clear
11:15 AM 39.2 °F 35.0 °F 32.0 °F 75% 29.70 in 10.0 mi ENE 5.8 mph - N/A Rain Light Rain
11:35 AM 39.2 °F - 32.0 °F 75% 29.72 in 10.0 mi Calm Calm - N/A Rain Light Rain
11:55 AM 42.8 °F 37.5 °F 33.8 °F 70% 29.70 in 10.0 mi SSE 9.2 mph 18.4 mph N/A   Overcast
12:15 PM 42.8 °F 37.5 °F 33.8 °F 70% 29.70 in 10.0 mi SSE 9.2 mph 21.9 mph N/A   Overcast
12:35 PM 42.8 °F 37.0 °F 35.6 °F 76% 29.70 in 10.0 mi SE 10.4 mph 21.9 mph N/A   Overcast
12:55 PM 42.8 °F 38.0 °F 35.6 °F 76% 29.70 in 10.0 mi South 8.1 mph 17.3 mph N/A   Overcast
1:15 PM 44.6 °F 42.2 °F 35.6 °F 71% 29.70 in 10.0 mi South 4.6 mph - N/A   Overcast
1:35 PM 44.6 °F 40.2 °F 37.4 °F 76% 29.70 in 10.0 mi South 8.1 mph 18.4 mph N/A   Mostly Cloudy
2:15 PM 44.6 °F 39.7 °F 37.4 °F 76% 29.70 in 10.0 mi South 9.2 mph 18.4 mph N/A   Partly Cloudy
2:35 PM 44.6 °F 40.7 °F 37.4 °F 76% 29.71 in 10.0 mi SSE 6.9 mph - N/A   Clear
2:55 PM 44.6 °F 41.4 °F 37.4 °F 76% 29.71 in 10.0 mi SSE 5.8 mph - N/A   Partly Cloudy
3:15 PM 44.6 °F 41.4 °F 35.6 °F 71% 29.71 in 10.0 mi East 5.8 mph - N/A   Scattered Clouds
3:35 PM 44.6 °F 40.7 °F 37.4 °F 76% 29.71 in 10.0 mi ESE 6.9 mph - N/A   Overcast
3:55 PM 42.8 °F 38.6 °F 37.4 °F 81% 29.71 in 10.0 mi East 6.9 mph - N/A   Overcast
4:15 PM 41.0 °F 37.1 °F 37.4 °F 87% 29.71 in 10.0 mi ENE 5.8 mph - N/A   Overcast
4:55 PM 41.0 °F 36.4 °F 37.4 °F 87% 29.72 in 10.0 mi East 6.9 mph - N/A   Overcast
5:15 PM 41.0 °F 35.2 °F 35.6 °F 81% 29.72 in 10.0 mi NE 9.2 mph - N/A   Overcast
5:35 PM 39.2 °F 35.9 °F 35.6 °F 87% 29.71 in 10.0 mi East 4.6 mph - N/A   Mostly Cloudy
5:55 PM 39.2 °F - 35.6 °F 87% 29.71 in 10.0 mi North - - N/A   Partly Cloudy
6:15 PM 41.0 °F 36.4 °F 35.6 °F 81% 29.71 in 10.0 mi ENE 6.9 mph - N/A   Clear
6:35 PM 39.2 °F 33.6 °F 35.6 °F 87% 29.72 in 10.0 mi ENE 8.1 mph - N/A   Clear
6:55 PM 39.2 °F 33.0 °F 33.8 °F 81% 29.71 in 10.0 mi ENE 9.2 mph - N/A   Clear
7:15 PM 39.2 °F 34.2 °F 33.8 °F 81% 29.71 in 10.0 mi NE 6.9 mph - N/A   Clear
7:35 PM 39.2 °F 34.2 °F 33.8 °F 81% 29.70 in 10.0 mi ENE 6.9 mph - N/A   Clear
7:55 PM 39.2 °F 35.0 °F 33.8 °F 81% 29.70 in 10.0 mi ENE 5.8 mph - N/A   Clear
8:15 PM 39.2 °F 34.2 °F 33.8 °F 81% 29.70 in 10.0 mi ENE 6.9 mph - N/A   Clear
8:35 PM 39.2 °F 34.2 °F 32.0 °F 75% 29.69 in 10.0 mi ENE 6.9 mph - N/A   Clear
8:55 PM 37.4 °F 32.1 °F 32.0 °F 81% 29.69 in 10.0 mi ENE 6.9 mph - N/A   Clear
9:15 PM 37.4 °F 30.8 °F 32.0 °F 81% 29.69 in 10.0 mi ENE 9.2 mph - N/A   Clear
9:35 PM 37.4 °F 30.8 °F 32.0 °F 81% 29.68 in 10.0 mi ENE 9.2 mph 16.1 mph N/A   Clear
9:55 PM 37.4 °F 32.1 °F 32.0 °F 81% 29.69 in 10.0 mi NE 6.9 mph - N/A   Clear
10:15 PM 37.4 °F 32.8 °F 32.0 °F 81% 29.68 in 10.0 mi ENE 5.8 mph - N/A   Clear
10:35 PM 37.4 °F - 32.0 °F 81% 29.69 in 10.0 mi Calm Calm - N/A   Scattered Clouds
10:55 PM 37.4 °F - 32.0 °F 81% 29.69 in 10.0 mi Calm Calm - N/A   Scattered Clouds
11:15 PM 37.4 °F 34.9 °F 32.0 °F 81% 29.68 in 10.0 mi NNE 3.5 mph - N/A Rain Light Rain
11:35 PM 37.4 °F - 32.0 °F 81% 29.68 in 10.0 mi North - - N/A   Partly Cloudy
11:55 PM 37.4 °F - 32.0 °F 81% 29.67 in 9.0 mi Calm Calm - N/A Rain Light Rain